Overview Statistics Trail Chart Weather Telemetry Raw packets
 

This is the latest recevied weather packets stored in our database for station/object KB4MLW-13. If no packets are shown the sender has not sent any weather packets the latest 10 day(s).

<< 140 141 142 143 144 145 146 >>
Time Temp. Humidity Pressure Rain* Wind** Luminosity Snow
1788133049 31.11° C 68% 1000.2 hPa 0 mm - - -
1788132988 31.11° C 68% 1000.1 hPa 0 mm - - -
1788132928 31.11° C 68% 1000.2 hPa 0 mm - - -
1788132838 31.11° C 69% 1000.1 hPa 0 mm - - -
1788132778 31.11° C 67% 1000 hPa 0 mm - - -
1788132718 31.11° C 70% 1000.1 hPa 0 mm - - -
1788132658 31.11° C 67% 1000 hPa 0 mm - - -
1788132538 31.11° C 66% 999.9 hPa 0 mm - - -
1788132448 31.11° C 66% 1000.3 hPa 0 mm - - -
1788131758 31.11° C 66% 1000.1 hPa 0 mm - - -
1788131698 31.11° C 66% 1000.2 hPa 0 mm - - -
1788131608 31.11° C 65% 1000.2 hPa 0 mm - - -
1788131518 31.11° C 66% 1000.1 hPa 0 mm - - -
1788131471 31.11° C 68% 1000.1 hPa 0 mm - - -
1788131398 31.11° C 70% 1000.3 hPa 0 mm - - -
1788131309 31.11° C 67% 1000.1 hPa 0 mm - - -
1788129928 32.22° C 63% 1000 hPa 0 mm - - -
1788129839 32.22° C 63% 1000.3 hPa 0 mm - - -
1788129749 32.22° C 64% 1000 hPa 0 mm - - -
1788129688 32.22° C 63% 1000.1 hPa 0 mm - - -
1788129598 32.22° C 63% 1000.2 hPa 0 mm - - -
1788129509 32.22° C 63% 1000.2 hPa 0 mm - - -
1788129448 32.22° C 63% 1000 hPa 0 mm - - -
1788129388 32.22° C 63% 1000.1 hPa 0 mm - - -
1788129328 32.22° C 63% 1000.2 hPa 0 mm - - -

* Rain latest hour (hover to see other rain measurements)
** Current wind speed in m/s (hover to see current wind gust speed)